Flag for U.S.A. Weather past 2 weeks in Madison, Wisconsin, U.S.A.

Now
35 °F

Passing clouds.


Feels Like: 29 °F
Forecast: 15 / 41 °F
Wind: 8 mph from South

Location: Dane County Regional-Truax Field

Current Time: Mar 28, 2015 at 1:24:39 PM

Latest Report: Mar 28, 2015 at 12:53 PM


Visibility: 10 mi

Pressure: 30.34 "Hg

Humidity: 36%

Dew point: 11 °F

Location of MadisonLocation

Historic Weather in Madison — Graph

°F

Madison temperature yesterday

Maximum temperature yesterday: 35 °F (at 4:53 PM)
Minimum temperature yesterday: 16 °F (at 6:53 AM)
Average temperature yesterday: 25 °F

Past Weeks' High & Low Weather Summary

 TemperatureHumidityPressure
High71 °F (Mar 16, 4:53 PM)92% (Mar 25, 2:53 AM)30.41 "Hg (Mar 25, 2:53 AM)
Low15 °F (Mar 28, 6:53 AM)20% (Mar 21, 3:53 PM)29.70 "Hg (Mar 16, 3:53 PM)
Average39 °F56%30.14 "Hg
* Reported Mar 13 11:53 AM — Mar 28 11:53 AM, Madison, Weather by CustomWeather, © 2015

Note: Actual official high and low records may vary slightly from our data, if they occured in-between our weather recording intervals... More about our weather records

Advertising

Madison weather history for previous 24 hours

 ConditionsComfort  
Time TempWeatherWind HumidityBarometerVisibility
11:53 AM
Sat, Mar 28
33 °FPassing clouds.7 mph40%30.36 "Hg10 mi
10:53 AM31 °FSunny.7 mph49%30.36 "Hg10 mi
9:53 AM28 °FPassing clouds.7 mph53%30.36 "Hg10 mi
8:53 AM25 °FPassing clouds.6 mph66%30.35 "Hg10 mi
7:53 AM21 °FPassing clouds.No wind81%30.34 "Hg10 mi
6:53 AM15 °FPassing clouds.No wind83%30.31 "Hg10 mi
5:53 AM16 °FPassing clouds.No wind80%30.29 "Hg10 mi
4:53 AM16 °FClear.No wind77%30.27 "Hg10 mi
3:53 AM16 °FClear.3 mph77%30.26 "Hg10 mi
2:53 AM21 °FClear.5 mph68%30.25 "Hg10 mi
1:53 AM22 °FClear.5 mph66%30.25 "Hg10 mi
12:53 AM23 °FClear.6 mph53%30.25 "Hg10 mi
11:53 PM
Fri, Mar 27
23 °FClear.3 mph48%30.25 "Hg10 mi
10:53 PM25 °FClear.3 mph46%30.24 "Hg10 mi
9:53 PM24 °FClear.5 mph48%30.24 "Hg10 mi
8:53 PM24 °FClear.3 mph48%30.22 "Hg10 mi
7:53 PM26 °FSunny.8 mph42%30.20 "Hg10 mi
6:53 PM31 °FSunny.7 mph31%30.19 "Hg10 mi
5:53 PM34 °FSunny.5 mph27%30.19 "Hg10 mi
4:53 PM35 °FSunny.8 mph27%30.18 "Hg10 mi
3:53 PM34 °FSunny.13 mph29%30.19 "Hg10 mi
2:53 PM33 °FSunny.9 mph30%30.19 "Hg10 mi
1:53 PM32 °FSunny.10 mph30%30.21 "Hg10 mi
Weather by CustomWeather, © 2015

See weather overviewHow to use our weather pages